Location: Newark
(27.9675°N, 86.8869°E)
Time: 19:19:30
(UTC+00:00)

Altair - Pass Details

Date: 26 October 2019
Orbit: 1502 x 1682 km, 47.2° (Epoch: 20 November)

Event Time Altitude Azimuth Distance (km) Brightness Sun altitude
Rises 03:55:55 0° 254° (WSW) 4,652 9.8 40.2°
Reaches altitude 10° 03:59:09 10° 261° (W) 3,688 9.4 40.7°
Maximum altitude 04:07:53 43° 331° (NNW) 2,078 8.2 41.9°
Drops below altitude 10° 04:16:58 10° 40° (NE) 3,821 9.6 43.0°
Sets 04:20:24 0° 48° (NE) 4,834 10.0 43.5°
